EDW4K LSZH-KTPA

Flight info

Callsign EDW4K
Flight time N/A
Altitude 40000
Route VEBIT T10 TORPA DCT REKLA DCT RLP DCT ROTSI DCT AMODO DCT COHPA UM729 RESMI UN491 LGL UN502 JSY DCT LIZAD DCT ARKIL DCT DINIM DCT 52N020W 52N030W 52N040W 51N050W DCT ALLRY N476B TOPPS DCT KAYCC DCT KYLOH DCT NELIE Q75 TEUFL DCT BAAMF DADES2
Aircraft A359/H-SDE2E3GHIJ3J4J5LM1ORWXY/LB1D1

Departure

Time N/A
Airport Zürich Airport (LSZH)

Arrival

Time 2026-05-04 14:37
Airport Tampa International Airport (KTPA)
Time Latitude Longitude Altitude Speed Heading
2026-05-04 13:58 31.99063 -81.97224 40163 ft 471 kts 206°
2026-05-04 13:58 31.86480 -82.01753 40162 ft 475 kts 202°
2026-05-04 13:59 31.60510 -82.08405 40169 ft 478 kts 201°
2026-05-04 14:00 31.35846 -82.14607 40157 ft 479 kts 202°
2026-05-04 14:00 31.16315 -82.19493 40159 ft 479 kts 202°
2026-05-04 14:01 31.03334 -82.22730 40153 ft 479 kts 202°
2026-05-04 14:02 30.92262 -82.25483 40150 ft 479 kts 202°
2026-05-04 14:02 30.85741 -82.27101 40146 ft 479 kts 202°
2026-05-04 14:03 30.79601 -82.28623 40148 ft 479 kts 202°
2026-05-04 14:03 30.73073 -82.30239 40137 ft 479 kts 202°
2026-05-04 14:04 30.63158 -82.32242 40156 ft 488 kts 196°
2026-05-04 14:04 30.56458 -82.33066 40157 ft 488 kts 196°
2026-05-04 14:05 30.46960 -82.34243 40159 ft 488 kts 196°
2026-05-04 14:06 30.43351 -82.34692 40160 ft 488 kts 196°
2026-05-04 14:06 30.36623 -82.35529 40159 ft 487 kts 196°
2026-05-04 14:07 30.29863 -82.36370 40152 ft 487 kts 196°
2026-05-04 14:07 30.23125 -82.37207 40159 ft 487 kts 196°
2026-05-04 14:08 30.16559 -82.37869 40125 ft 496 kts 190°
2026-05-04 14:08 30.10431 -82.37604 40158 ft 501 kts 187°
2026-05-04 14:09 30.02255 -82.37131 40162 ft 500 kts 187°
2026-05-04 14:10 29.91832 -82.36545 40158 ft 500 kts 187°
2026-05-04 14:10 29.84875 -82.36158 40159 ft 500 kts 187°
2026-05-04 14:11 29.77988 -82.35775 40164 ft 499 kts 187°
2026-05-04 14:11 29.67569 -82.35198 40165 ft 499 kts 187°
2026-05-04 14:12 29.60645 -82.34813 39837 ft 495 kts 187°
2026-05-04 14:12 29.53751 -82.34436 38603 ft 494 kts 186°
2026-05-04 14:13 29.50319 -82.34247 37858 ft 495 kts 186°
2026-05-04 14:13 29.46880 -82.34057 37152 ft 495 kts 186°
2026-05-04 14:13 29.43485 -82.33869 36480 ft 495 kts 186°
2026-05-04 14:13 29.40052 -82.33680 35753 ft 496 kts 186°
2026-05-04 14:14 29.36583 -82.33382 34967 ft 503 kts 182°
2026-05-04 14:14 29.29564 -82.32468 33127 ft 510 kts 182°
2026-05-04 14:14 29.26027 -82.32019 32230 ft 512 kts 182°
2026-05-04 14:15 29.18923 -82.31150 30333 ft 517 kts 181°
2026-05-04 14:15 29.11753 -82.30287 28549 ft 513 kts 181°
2026-05-04 14:16 29.04730 -82.29443 27131 ft 502 kts 180°
2026-05-04 14:16 29.01271 -82.29031 26407 ft 498 kts 180°
2026-05-04 14:17 28.94448 -82.28221 25023 ft 489 kts 180°
2026-05-04 14:17 28.91121 -82.27827 24338 ft 484 kts 179°
2026-05-04 14:17 28.84435 -82.27036 22860 ft 475 kts 179°
2026-05-04 14:18 28.81171 -82.26649 22181 ft 468 kts 179°
2026-05-04 14:18 28.74777 -82.25904 20795 ft 455 kts 179°
2026-05-04 14:19 28.68547 -82.25699 19445 ft 442 kts 183°
2026-05-04 14:19 28.65524 -82.25659 18782 ft 438 kts 183°
2026-05-04 14:19 28.62491 -82.25620 18043 ft 434 kts 183°
2026-05-04 14:19 28.59492 -82.25570 17286 ft 429 kts 182°
2026-05-04 14:20 28.56520 -82.25511 16523 ft 425 kts 182°
2026-05-04 14:20 28.53578 -82.25453 15822 ft 420 kts 182°
2026-05-04 14:20 28.50670 -82.25403 15135 ft 416 kts 182°
2026-05-04 14:21 28.44943 -82.25329 13731 ft 407 kts 181°
2026-05-04 14:21 28.42129 -82.25291 12998 ft 402 kts 181°
2026-05-04 14:21 28.39355 -82.25271 12329 ft 395 kts 183°
2026-05-04 14:21 28.36677 -82.25719 11645 ft 385 kts 199°
2026-05-04 14:22 28.34350 -82.27086 11185 ft 369 kts 218°
2026-05-04 14:22 28.32406 -82.28865 11047 ft 349 kts 222°
2026-05-04 14:22 28.30603 -82.30591 10920 ft 331 kts 222°
2026-05-04 14:22 28.28886 -82.32239 10792 ft 315 kts 222°
2026-05-04 14:23 28.25694 -82.35288 10535 ft 286 kts 222°
2026-05-04 14:23 28.24204 -82.36709 10414 ft 274 kts 222°
2026-05-04 14:23 28.22768 -82.38077 10248 ft 267 kts 222°
2026-05-04 14:24 28.21354 -82.39424 9926 ft 266 kts 222°
2026-05-04 14:24 28.19786 -82.40599 9552 ft 279 kts 207°
2026-05-04 14:24 28.17875 -82.41120 9179 ft 288 kts 186°
2026-05-04 14:24 28.15870 -82.41200 8773 ft 288 kts 183°
2026-05-04 14:25 28.13861 -82.41221 8398 ft 289 kts 184°
2026-05-04 14:25 28.09855 -82.41286 7617 ft 286 kts 183°
2026-05-04 14:25 28.07866 -82.41326 7222 ft 286 kts 184°
2026-05-04 14:26 28.06367 -82.41359 6919 ft 285 kts 184°
2026-05-04 14:26 28.04382 -82.41405 6526 ft 284 kts 184°
2026-05-04 14:26 28.02441 -82.41452 6238 ft 278 kts 183°
2026-05-04 14:26 28.00525 -82.41496 6051 ft 267 kts 184°
2026-05-04 14:27 27.98702 -82.41540 5890 ft 257 kts 183°
2026-05-04 14:27 27.96949 -82.41583 5719 ft 247 kts 184°
2026-05-04 14:27 27.95250 -82.41618 5496 ft 241 kts 182°
2026-05-04 14:27 27.93614 -82.41652 5250 ft 237 kts 182°
2026-05-04 14:28 27.91965 -82.41687 4910 ft 237 kts 181°
2026-05-04 14:28 27.90315 -82.41731 4552 ft 238 kts 181°
2026-05-04 14:28 27.88663 -82.41772 4292 ft 235 kts 180°
2026-05-04 14:28 27.87040 -82.41810 4011 ft 232 kts 179°
2026-05-04 14:29 27.83818 -82.41950 3373 ft 231 kts 179°
2026-05-04 14:29 27.80607 -82.42010 2988 ft 231 kts 178°
2026-05-04 14:30 27.79009 -82.42126 2969 ft 233 kts 190°
2026-05-04 14:30 27.77583 -82.42988 2976 ft 234 kts 224°
2026-05-04 14:30 27.76478 -82.46357 2981 ft 235 kts 265°
2026-05-04 14:31 27.76308 -82.48188 2980 ft 235 kts 267°
2026-05-04 14:31 27.76074 -82.51848 2961 ft 232 kts 279°
2026-05-04 14:32 27.77772 -82.54310 2984 ft 181 kts 341°
2026-05-04 14:32 27.78894 -82.54724 2969 ft 162 kts 356°
2026-05-04 14:32 27.79987 -82.54779 2972 ft 158 kts
2026-05-04 14:32 27.81087 -82.54746 2943 ft 158 kts
2026-05-04 14:33 27.82185 -82.54716 2756 ft 157 kts
2026-05-04 14:33 27.83269 -82.54679 2534 ft 156 kts
2026-05-04 14:33 27.84354 -82.54642 2324 ft 156 kts
2026-05-04 14:33 27.85439 -82.54606 2110 ft 156 kts
2026-05-04 14:34 27.86524 -82.54569 1910 ft 156 kts
2026-05-04 14:34 27.87610 -82.54532 1691 ft 156 kts
2026-05-04 14:34 27.88681 -82.54496 1487 ft 151 kts
2026-05-04 14:34 27.89695 -82.54462 1288 ft 140 kts
2026-05-04 14:35 27.90631 -82.54431 1109 ft 130 kts
2026-05-04 14:35 27.91528 -82.54398 990 ft 128 kts
2026-05-04 14:35 27.92421 -82.54379 824 ft 130 kts
2026-05-04 14:35 27.93327 -82.54342 678 ft 130 kts
2026-05-04 14:36 27.94245 -82.54301 473 ft 134 kts
2026-05-04 14:36 27.95165 -82.54275 295 ft 132 kts
2026-05-04 14:36 27.96068 -82.54247 134 ft 127 kts
2026-05-04 14:36 27.96916 -82.54220 58 ft 115 kts 360°
2026-05-04 14:37 27.97546 -82.54195 50 ft 45 kts
2026-05-04 14:37 27.97677 -82.54165 47 ft 11 kts 65°
2026-05-04 14:37 27.97660 -82.54086 47 ft 11 kts 138°
2026-05-04 14:37 27.97599 -82.54042 47 ft 11 kts 111°
2026-05-04 14:38 27.97590 -82.53945 48 ft 14 kts 92°
2026-05-04 14:38 27.97562 -82.53834 45 ft 13 kts 127°
2026-05-04 14:38 27.97558 -82.53785 45 ft 6 kts 58°
2026-05-04 14:38 27.97583 -82.53743 45 ft 2 kts 55°
2026-05-04 14:39 27.97592 -82.53727 44 ft 0 kts 55°
2026-05-04 14:39 27.97593 -82.53727 44 ft 0 kts 55°
2026-05-04 14:39 27.97594 -82.53725 44 ft 0 kts 55°